Location: Berg
(47.2344°N, 9.5296°E)
Time: 01:26:17
(UTC+00:00)

BEESAT 2 - Pass Details

Date: 29 November 2021
Orbit: 498 x 513 km, 64.9° (Epoch: 24 January)

Event Time Altitude Azimuth Distance (km) Brightness Sun altitude
Exits shadow 05:47:48 - 336° (NNW) 2,170 ? -9.6°
Reaches altitude 10° 05:49:03 10° 345° (NNW) 1,753 ? -9.4°
Maximum altitude 05:52:10 22° 38° (NE) 1,163 ? -8.9°
Drops below altitude 10° 05:55:16 10° 91° (E) 1,744 ? -8.4°
Sets 05:57:48 0° 107° (ESE) 2,625 ? -8.0°
